R/V Atlantis Calliope CSV data file  (Time stamps are GMT)
Date, Time_GMT, Dec_Lat, Dec_Lon, Depth12, Depth35, GPS_COG, GPS_SOG, Gyro, Air_Temp, IMET_BPR, IMET_SWR, HRH, PhinsHd, SBE45C, SBE45S, SBE45T, Salinity, SSTMP, SSV, SSCND, SST_FSI, SST_SBE48, Wnd_Dir, Wnd_Spd, HdChkSum=1B
2009/03/12, 00:00:03, 5.245500, -92.659950, , , 243.0, 12.50, 234.8, 27.146, 1005.31, 28.4, 76.803, 235.1, , , , 30.9923, 28.7893, 1538.8334, 51.2064, 28.7302, 28.7893, 5.1, 5.3901, 1B
2009/03/12, 00:01:01, 5.243783, -92.662883, , , 242.0, 12.30, 234.8, 27.146, 1005.59, 26.3, 76.734, 234.4, , , , 30.9993, 28.7840, 1538.8302, 51.2121, 28.7262, 28.7840, 2.8, 5.6550, 1B
2009/03/12, 00:02:01, 5.242050, -92.665833, , , 235.0, 12.10, 234.7, 27.169, 1005.43, 24.0, 77.302, 234.2, , , , 31.0126, 28.7776, 1538.8291, 51.2252, 28.7276, 28.7776, 3.9, 5.8672, 1B
2009/03/12, 00:03:01, 5.240333, -92.668817, , , 240.0, 12.20, 235.1, 27.169, 1005.49, 22.5, 77.600, 234.9, , , , 31.0098, 28.7760, 1538.8227, 51.2194, 28.7351, 28.7760, 6.6, 5.7462, 1B
2009/03/12, 00:04:02, 5.238617, -92.671800, , , 240.0, 12.20, 234.9, 27.192, 1005.53, 21.2, 78.543, 234.8, , , , 31.0229, 28.7751, 1538.8344, 51.2379, 28.7428, 28.7751, 359.1, 6.0199, 1B
2009/03/12, 00:05:01, 5.236917, -92.674783, , , 240.0, 12.40, 235.7, 27.185, 1005.64, 20.3, 78.719, 234.3, , , , 31.0287, 28.7790, 1538.8466, 51.2492, 28.7502, 28.7790, 0.1, 5.6333, 1B
2009/03/12, 00:06:02, 5.235250, -92.677800, , , 240.0, 12.60, 234.7, 27.185, 1005.60, 18.5, 77.547, 234.4, , , , 31.0363, 28.7830, 1538.8657, 51.2653, 28.7669, 28.7830, 2.4, 5.8188, 1B
2009/03/12, 00:07:02, 5.233550, -92.680783, , , 239.0, 12.20, 235.3, 27.154, 1005.78, 17.0, 77.003, 234.9, , , , 31.0413, 28.7875, 1538.8807, 51.2769, 28.7655, 28.7875, 4.3, 5.3703, 1B
2009/03/12, 00:08:01, 5.231833, -92.683733, , , 239.0, 12.30, 235.6, 27.169, 1005.67, 15.2, 77.439, 234.7, , , , 31.0425, 28.7903, 1538.8877, 51.2812, 28.7596, 28.7903, 5.2, 5.1617, 1B
2009/03/12, 00:09:01, 5.230133, -92.686717, , , 238.0, 12.20, 234.8, 27.177, 1005.61, 13.4, 77.922, 234.7, , , , 31.0259, 28.7916, 1538.8736, 51.2581, 28.7514, 28.7916, 3.4, 5.9366, 1B
2009/03/12, 00:10:02, 5.228417, -92.689700, , , 240.0, 12.40, 234.1, 27.161, 1005.55, 11.8, 77.079, 233.5, , , , 31.0503, 28.7901, 1538.8958, 51.2927, 28.7476, 28.7901, 8.2, 5.6819, 1B
2009/03/12, 00:11:02, 5.226700, -92.692667, , , 240.0, 12.20, 234.6, 27.169, 1005.55, 10.2, 77.455, 234.2, , , , 31.0414, 28.7877, 1538.8813, 51.2773, 28.7354, 28.7877, 5.7, 6.2126, 1B
2009/03/12, 00:12:02, 5.225000, -92.695650, , , 241.0, 12.30, 234.7, 27.185, 1005.44, 8.7, 78.137, 234.9, , , , 31.0358, 28.7845, 1538.8684, 51.2660, 28.7357, 28.7845, 359.1, 5.9710, 1B
2009/03/12, 00:13:01, 5.223267, -92.698617, , , 239.0, 12.40, 234.8, 27.161, 1005.68, 7.9, 77.141, 234.4, , , , 31.0445, 28.7816, 1538.8712, 51.2760, 28.7390, 28.7816, 356.4, 5.6963, 1B
2009/03/12, 00:14:02, 5.221533, -92.701567, , , 240.0, 12.20, 233.6, 27.154, 1005.66, 7.2, 77.340, 234.0, , , , 31.0696, 28.7806, 1538.8953, 51.3120, 28.7441, 28.7806, 1.1, 5.4008, 1B
2009/03/12, 00:15:02, 5.219850, -92.704567, , , 240.0, 12.50, 235.5, 27.154, 1005.71, 6.7, 77.462, 235.2, , , , 31.0835, 28.7812, 1538.9112, 51.3330, 28.7476, 28.7812, 2.9, 6.0220, 1B
2009/03/12, 00:16:02, 5.218167, -92.707567, , , 241.0, 12.40, 235.5, 27.161, 1005.72, 6.0, 78.052, 235.0, , , , 31.0802, 28.7825, 1538.9106, 51.3294, 28.7511, 28.7825, 9.1, 6.2557, 1B
2009/03/12, 00:17:01, 5.216467, -92.710583, , , 244.0, 12.50, 235.0, 27.146, 1005.81, 5.6, 77.547, 235.2, , , , 31.0785, 28.7838, 1538.9116, 51.3282, 28.7505, 28.7838, 6.6, 6.4605, 1B
2009/03/12, 00:18:02, 5.214767, -92.713583, , , 242.0, 12.20, 235.6, 27.131, 1005.86, 5.1, 77.271, 235.8, , , , 31.0681, 28.7848, 1538.9029, 51.3138, 28.7416, 28.7848, 6.9, 6.0572, 1B
2009/03/12, 00:19:02, 5.213067, -92.716600, , , 242.0, 12.50, 235.5, 27.169, 1005.83, 4.8, 78.252, 235.9, , , , 31.0581, 28.7847, 1538.8922, 51.2990, 28.7455, 28.7847, 13.9, 5.7852, 1B
2009/03/12, 00:20:02, 5.211367, -92.719633, , , 240.0, 12.50, 235.1, 27.131, 1005.46, 4.4, 78.068, 234.9, , , , 31.0849, 28.7854, 1538.9218, 51.3391, 28.7671, 28.7854, 7.6, 5.9935, 1B
2009/03/12, 00:21:02, 5.209650, -92.722633, , , 240.0, 12.50, 234.5, 27.169, 1005.78, 4.0, 78.727, 233.7, , , , 31.0617, 28.7903, 1538.9082, 51.3096, 28.7684, 28.7903, 6.8, 5.8706, 1B
2009/03/12, 00:22:01, 5.207933, -92.725633, , , 244.0, 12.40, 235.6, 27.169, 1005.61, 3.7, 78.727, 234.9, , , , 31.0501, 28.7932, 1538.9017, 51.2823, 28.7698, 28.7932, 8.7, 5.7750, 1B
2009/03/12, 00:23:02, 5.206233, -92.728633, , , 242.0, 12.30, 235.2, 27.123, 1005.71, 3.3, 77.999, 235.2, , , , 31.0103, 28.7965, 1538.8679, 51.2399, 28.7681, 28.7965, 3.1, 5.7823, 1B
2009/03/12, 00:24:02, 5.204500, -92.731600, , , 242.0, 12.20, 234.1, 27.115, 1005.70, 3.0, 78.091, 234.6, , , , 31.0011, 28.8006, 1538.8672, 51.2302, 28.7743, 28.8006, 2.1, 6.1346, 1B
2009/03/12, 00:25:02, 5.202750, -92.734567, , , 240.0, 12.40, 234.7, 27.100, 1005.73, 2.7, 77.930, 235.8, , , , 31.0135, 28.8038, 1538.8872, 51.2516, 28.7754, 28.8038, 3.7, 5.8381, 1B
2009/03/12, 00:26:01, 5.201017, -92.737567, , , 238.0, 12.20, 235.5, 27.092, 1005.83, 2.7, 77.746, 235.7, , , , 31.0140, 28.8055, 1538.8877, 51.2523, 28.7746, 28.8055, 358.8, 6.2910, 1B
2009/03/12, 00:27:02, 5.199317, -92.740600, , , 237.0, 12.20, 234.1, 27.115, 1005.91, 2.3, 78.367, 235.1, , , , 31.0228, 28.8085, 1538.9072, 51.2698, 28.7894, 28.8085, 359.6, 5.9020, 1B
2009/03/12, 00:28:02, 5.197617, -92.743600, , , 243.0, 12.40, 235.8, 27.077, 1005.87, 2.2, 78.190, 234.8, , , , 31.0096, 28.8121, 1538.9012, 51.2537, 28.7812, 28.8121, 4.6, 5.3744, 1B
2009/03/12, 00:29:01, 5.195900, -92.746600, , , 243.0, 12.40, 234.7, 27.077, 1005.68, 1.8, 78.190, 235.4, , , , 31.0062, 28.8138, 1538.9007, 51.2500, 28.7834, 28.8138, 1.6, 5.6596, 1B
2009/03/12, 00:30:01, 5.194200, -92.749633, , , 240.0, 12.50, 234.8, 27.092, 1005.89, 1.8, 78.206, 235.3, , , , 30.9995, 28.8158, 1538.8976, 51.2419, 28.7781, 28.8158, 3.6, 6.0724, 1B
2009/03/12, 00:31:01, 5.192483, -92.752633, , , 242.0, 12.40, 234.1, 27.131, 1005.92, 1.4, 79.209, 233.1, , , , 30.9942, 28.8130, 1538.8871, 51.2319, 28.7594, 28.8130, 6.5, 5.5163, 1B
2009/03/12, 00:32:01, 5.190733, -92.755650, , , 245.0, 12.50, 234.0, 27.123, 1005.93, 1.3, 79.554, 234.7, , , , 30.9885, 28.8091, 1538.8759, 51.2212, 28.7552, 28.8091, 4.2, 6.7641, 1B
2009/03/12, 00:33:02, 5.189033, -92.758700, , , 242.0, 12.40, 235.1, 27.107, 1005.96, 1.0, 78.773, 234.6, , , , 30.9920, 28.8016, 1538.8599, 51.2177, 28.7244, 28.8016, 2.8, 5.9405, 1B
2009/03/12, 00:34:02, 5.187333, -92.761733, , , 243.0, 12.60, 233.4, 27.077, 1005.64, 0.9, 78.497, 234.5, , , , 30.9880, 28.7928, 1538.8365, 51.2034, 28.7279, 28.7928, 9.4, 5.9984, 1B
2009/03/12, 00:35:01, 5.185633, -92.764750, , , 243.0, 12.60, 235.5, 27.077, 1006.08, 0.9, 78.497, 236.3, , , , 31.0015, 28.7866, 1538.8391, 51.2183, 28.7237, 28.7866, 13.9, 6.1713, 1B
2009/03/12, 00:36:01, 5.183933, -92.767800, , , 241.0, 12.60, 235.3, 27.092, 1005.90, 0.7, 78.888, 234.9, , , , 31.0350, 28.7797, 1538.8602, 51.2615, 28.7213, 28.7797, 8.8, 6.2179, 1B
2009/03/12, 00:37:01, 5.182250, -92.770867, , , 242.0, 12.70, 235.2, 27.092, 1005.96, 0.5, 78.765, 234.6, , , , 31.0669, 28.7737, 1538.8790, 51.3021, 28.7148, 28.7737, 3.7, 5.5103, 1B
2009/03/12, 00:38:02, 5.180533, -92.773900, , , 241.0, 12.60, 234.3, 27.084, 1005.95, 0.5, 78.183, 234.7, , , , 31.1179, 28.7700, 1538.9228, 51.3730, 28.7257, 28.7700, 348.1, 5.3992, 1B
2009/03/12, 00:39:02, 5.178817, -92.776950, , , 238.0, 12.40, 235.6, 27.061, 1005.83, 0.5, 77.777, 235.8, , , , 31.1028, 28.7713, 1538.9098, 51.3520, 28.7471, 28.7713, 350.0, 5.8159, 1B
2009/03/12, 00:40:01, 5.177067, -92.780000, , , 240.0, 12.70, 234.8, 27.061, 1005.91, 0.5, 77.777, 234.3, , , , 31.1301, 28.7729, 1538.9423, 51.3939, 28.7395, 28.7729, 352.6, 5.4319, 1B
2009/03/12, 00:41:01, 5.175350, -92.783067, , , 239.0, 12.70, 234.7, 27.046, 1006.13, 0.5, 77.049, 235.5, , , , 31.2181, 28.7706, 1539.0312, 51.5221, 28.7119, 28.7706, 354.2, 5.6541, 1B
2009/03/12, 00:42:01, 5.173617, -92.786117, , , 242.0, 12.40, 235.3, 27.084, 1006.18, 0.5, 76.872, 234.8, , , , 31.2418, 28.7656, 1539.0433, 51.5514, 28.7062, 28.7656, 2.6, 5.3785, 1B
2009/03/12, 00:43:01, 5.171883, -92.789200, , , 240.0, 12.80, 235.5, 27.092, 1006.11, 0.5, 77.409, 236.1, , , , 31.2539, 28.7573, 1539.0401, 51.5621, 28.6853, 28.7573, 3.8, 5.1080, 1B
2009/03/12, 00:44:01, 5.170150, -92.792283, , , 240.0, 12.80, 234.8, 27.115, 1006.09, 0.5, 78.152, 235.3, , , , 31.2769, 28.7507, 1539.0524, 51.5908, 28.6842, 28.7507, 358.1, 5.7322, 1B
2009/03/12, 00:45:01, 5.168450, -92.795350, , , 240.0, 12.60, 234.6, 27.077, 1006.21, 0.5, 77.049, 233.8, , , , 31.3110, 28.7498, 1539.0809, 51.6378, 28.7210, 28.7498, 2.4, 6.1415, 1B
2009/03/12, 00:46:02, 5.166750, -92.798400, , , 242.0, 12.60, 236.7, 27.107, 1006.26, 0.5, 77.991, 235.8, , , , 31.3234, 28.7525, 1539.0998, 51.6586, 28.7330, 28.7525, 6.1, 5.6948, 1B
2009/03/12, 00:47:02, 5.165033, -92.801467, , , 242.0, 12.50, 234.6, 27.092, 1006.25, 0.5, 78.213, 234.4, , , , 31.3150, 28.7553, 1539.0971, 51.6489, 28.7275, 28.7553, 5.8, 5.5443, 1B
2009/03/12, 00:48:02, 5.163283, -92.804483, , , 240.0, 12.60, 235.3, 27.138, 1006.22, 0.5, 79.286, 235.0, , , , 31.3273, 28.7581, 1539.1161, 51.6697, 28.7260, 28.7581, 3.9, 6.2161, 1B
2009/03/12, 00:49:02, 5.161600, -92.807550, , , 239.0, 12.50, 236.2, 27.100, 1006.07, 0.5, 78.949, 235.0, , , , 31.3412, 28.7599, 1539.1345, 51.6919, 28.7266, 28.7599, 1.2, 6.8292, 1B
2009/03/12, 00:50:02, 5.159883, -92.810567, , , 243.0, 12.50, 233.4, 27.092, 1006.13, 0.5, 78.007, 234.6, , , , 31.3454, 28.7594, 1539.1378, 51.6976, 28.7157, 28.7594, 359.9, 6.5312, 1B
2009/03/12, 00:51:02, 5.158167, -92.813583, , , 240.0, 12.80, 234.9, 27.115, 1006.24, 0.5, 78.474, 234.2, , , , 31.3239, 28.7559, 1539.1077, 51.6627, 28.6941, 28.7559, 1.3, 6.1059, 1B
2009/03/12, 00:52:02, 5.156467, -92.816617, , , 240.0, 12.40, 236.4, 27.100, 1006.30, 0.5, 78.206, 234.5, , , , 31.3125, 28.7501, 1539.0831, 51.6403, 28.6885, 28.7501, 1.8, 6.2694, 1B
2009/03/12, 00:53:02, 5.154783, -92.819650, , , 241.0, 12.60, 235.3, 27.100, 1006.19, 0.3, 77.968, 235.3, , , , 31.3130, 28.7435, 1539.0692, 51.6346, 28.6816, 28.7435, 8.7, 5.8121, 1B
2009/03/12, 00:54:02, 5.153083, -92.822683, , , 241.0, 12.90, 234.9, 27.107, 1006.22, 0.3, 77.823, 234.4, , , , 31.3294, 28.7376, 1539.0735, 51.6531, 28.6763, 28.7376, 6.3, 5.7954, 1B
2009/03/12, 00:55:02, 5.151367, -92.825717, , , 241.0, 12.60, 235.4, 27.123, 1006.07, 0.1, 78.183, 235.0, , , , 31.3436, 28.7319, 1539.0759, 51.6684, 28.6717, 28.7319, 0.9, 6.6900, 1B
2009/03/12, 00:56:02, 5.149667, -92.828767, , , 243.0, 12.60, 235.1, 27.092, 1006.22, 0.3, 78.045, 234.7, , , , 31.3712, 28.7312, 1539.1033, 51.7084, 28.6870, 28.7312, 7.9, 6.5249, 1B
2009/03/12, 00:57:02, 5.147950, -92.831817, , , 241.0, 12.60, 235.7, 27.115, 1006.04, 0.5, 78.068, 235.9, , , , 31.4457, 28.7386, 1539.1975, 51.8250, 28.7464, 28.7386, 2.5, 6.4531, 1B
2009/03/12, 00:58:01, 5.146300, -92.834883, , , 241.0, 12.30, 235.9, 27.115, 1006.10, 0.5, 78.014, 235.3, , , , 31.4765, 28.7477, 1539.2455, 51.8772, 28.7492, 28.7477, 1.5, 6.3106, 1B
2009/03/12, 00:59:02, 5.144683, -92.837983, , , 243.0, 12.70, 235.3, 27.146, 1006.25, 0.3, 78.658, 235.2, , , , 31.4616, 28.7546, 1539.2491, 51.8639, 28.7263, 28.7546, 2.1, 6.4474, 1B
2009/03/12, 01:00:02, 5.143017, -92.841067, , , 243.0, 12.50, 235.8, 27.107, 1006.17, 0.1, 78.221, 234.7, , , , 31.4810, 28.7594, 1539.2799, 51.8971, 28.7383, 28.7594, 3.8, 6.2027, 1B
2009/03/12, 01:01:02, 5.141333, -92.844133, , , 241.0, 12.40, 234.8, 27.100, 1006.24, 0.1, 77.953, 234.7, , , , 31.4822, 28.7642, 1539.2916, 51.9034, 28.7449, 28.7642, 3.4, 6.4268, 1B
2009/03/12, 01:02:01, 5.139633, -92.847200, , , 244.0, 12.50, 235.4, 27.115, 1006.34, 0.1, 77.746, 234.3, , , , 31.4855, 28.7718, 1539.3077, 51.9140, 28.7535, 28.7718, 4.8, 6.3971, 1B
2009/03/12, 01:03:01, 5.137950, -92.850250, , , 241.0, 12.70, 233.9, 27.084, 1006.22, 0.1, 77.133, 235.0, , , , 31.4877, 28.7785, 1539.3252, 51.9240, 28.7656, 28.7785, 11.3, 6.0024, 1B
2009/03/12, 01:04:01, 5.136267, -92.853300, , , 240.0, 12.30, 234.7, 27.115, 1006.27, 0.1, 78.244, 234.6, , , , 31.4943, 28.7871, 1539.3509, 51.9420, 28.7781, 28.7871, 9.0, 6.2252, 1B
2009/03/12, 01:05:01, 5.134567, -92.856350, , , 242.0, 12.80, 234.8, 27.138, 1006.23, 0.1, 78.880, 235.7, , , , 31.4985, 28.7983, 1539.3777, 51.9582, 28.7909, 28.7983, 8.8, 6.4924, 1B
2009/03/12, 01:06:02, 5.132867, -92.859400, , , 239.0, 12.70, 234.6, 27.131, 1006.22, 0.1, 78.213, 234.7, , , , 31.5080, 28.8101, 1539.4186, 51.9859, 28.8162, 28.8101, 8.8, 6.8178, 1B
2009/03/12, 01:07:02, 5.131150, -92.862467, , , 240.0, 12.70, 234.7, 27.161, 1006.26, 0.1, 78.903, 234.6, , , , 31.5068, 28.8204, 1539.4398, 51.9941, 28.8155, 28.8204, 15.4, 6.7452, 1B
2009/03/12, 01:08:01, 5.129450, -92.865533, , , 239.0, 12.70, 236.2, 27.154, 1006.13, 0.1, 78.627, 235.8, , , , 31.5160, 28.8311, 1539.4715, 52.0181, 28.8326, 28.8311, 15.0, 6.9046, 1B
2009/03/12, 01:09:02, 5.127750, -92.868600, , , 241.0, 12.40, 234.0, 27.138, 1006.28, 0.1, 77.999, 233.9, , , , 31.5048, 28.8405, 1539.4814, 52.0107, 28.8351, 28.8405, 2.4, 6.0752, 1B
2009/03/12, 01:10:02, 5.126050, -92.871633, , , 240.0, 12.40, 235.4, 27.169, 1006.48, 0.1, 78.957, 235.3, , , , 31.4956, 28.8476, 1539.4872, 52.0041, 28.8350, 28.8476, 6.0, 6.3341, 1B
2009/03/12, 01:11:02, 5.124333, -92.874650, , , 239.0, 12.50, 235.7, 27.154, 1006.03, 0.1, 78.037, 235.2, , , , 31.4863, 28.8523, 1539.4877, 51.9949, 28.8265, 28.8523, 4.0, 6.2701, 1B
2009/03/12, 01:12:02, 5.122667, -92.877700, , , 240.0, 12.60, 235.0, 27.185, 1006.15, 0.1, 78.543, 233.9, , , , 31.4866, 28.8554, 1539.4948, 51.9984, 28.8293, 28.8554, 5.1, 6.2569, 1B
2009/03/12, 01:13:02, 5.120950, -92.880750, , , 244.0, 12.50, 234.1, 27.185, 1006.35, 0.2, 78.627, 234.6, , , , 31.5062, 28.8611, 1539.5277, 52.0328, 28.8550, 28.8611, 11.1, 5.9605, 1B
2009/03/12, 01:14:01, 5.119217, -92.883783, , , 241.0, 12.80, 234.5, 27.185, 1006.36, 0.2, 78.627, 234.2, , , , 31.4926, 28.8649, 1539.5208, 52.0161, 28.8453, 28.8649, 5.6, 5.7153, 1B
2009/03/12, 01:15:02, 5.117517, -92.886833, , , 242.0, 12.50, 235.1, 27.161, 1006.35, 0.3, 77.225, 235.1, , , , 31.4862, 28.8682, 1539.5222, 52.0102, 28.8499, 28.8682, 4.6, 6.2022, 1B
2009/03/12, 01:16:01, 5.115817, -92.889900, , , 243.0, 12.60, 234.5, 27.161, 1006.34, 0.4, 77.409, 234.9, , , , 31.5015, 28.8758, 1539.5527, 52.0392, 28.8676, 28.8758, 6.7, 6.2521, 1B
2009/03/12, 01:17:01, 5.114100, -92.892967, , , 240.0, 12.40, 235.7, 27.177, 1006.46, 0.5, 77.861, 234.7, , , , 31.5038, 28.8822, 1539.5710, 52.0498, 28.8712, 28.8822, 11.3, 6.2600, 1B
2009/03/12, 01:18:02, 5.112400, -92.896033, , , 242.0, 12.70, 235.8, 27.169, 1006.19, 0.4, 77.416, 235.3, , , , 31.5003, 28.8875, 1539.5789, 52.0497, 28.8637, 28.8875, 6.1, 6.3010, 1B
2009/03/12, 01:19:01, 5.110717, -92.899133, , , 243.0, 12.90, 235.2, 27.177, 1006.34, 0.3, 77.447, 234.9, , , , 31.4993, 28.8910, 1539.5854, 52.0516, 28.8693, 28.8910, 6.1, 6.1552, 1B
2009/03/12, 01:20:02, 5.109017, -92.902217, , , 241.0, 12.70, 235.1, 27.192, 1006.16, 0.4, 78.382, 234.3, , , , 31.4804, 28.8937, 1539.5715, 52.0264, 28.8568, 28.8937, 8.7, 6.6155, 1B
2009/03/12, 01:21:02, 5.107300, -92.905267, , , 243.0, 12.70, 235.1, 27.192, 1006.37, 0.5, 78.290, 235.0, , , , 31.4683, 28.8937, 1539.5588, 52.0086, 28.8563, 28.8937, 5.6, 6.0515, 1B
2009/03/12, 01:22:02, 5.105617, -92.908333, , , 241.0, 12.50, 235.1, 27.185, 1006.50, 0.5, 77.769, 234.1, , , , 31.4750, 28.8926, 1539.5635, 52.0174, 28.8517, 28.8926, 3.2, 6.3349, 1B
2009/03/12, 01:23:01, 5.103900, -92.911400, , , 240.0, 13.00, 235.2, 27.185, 1006.64, 0.5, 78.083, 234.1, , , , 31.4904, 28.8946, 1539.5826, 52.0415, 28.8767, 28.8946, 3.6, 6.1617, 1B
2009/03/12, 01:24:01, 5.102217, -92.914517, , , 243.0, 12.70, 235.2, 27.200, 1006.50, 0.5, 78.029, 234.4, , , , 31.5421, 28.9006, 1539.6480, 52.1227, 28.8922, 28.9006, 10.4, 6.3417, 1B
2009/03/12, 01:25:01, 5.100500, -92.917600, , , 240.0, 12.90, 235.2, 27.200, 1006.47, 0.5, 78.045, 234.1, , , , 31.5462, 28.9044, 1539.6649, 52.1343, 28.8836, 28.9044, 6.5, 6.0919, 1B
2009/03/12, 01:26:01, 5.098800, -92.920683, , , 239.0, 12.60, 235.2, 27.200, 1006.49, 0.5, 78.045, 235.0, , , , 31.4942, 28.8995, 1539.6001, 52.0530, 28.8294, 28.8995, 6.4, 6.3656, 1B
2009/03/12, 01:27:01, 5.097100, -92.923800, , , 241.0, 12.90, 235.0, 27.177, 1006.63, 0.5, 77.616, 234.7, , , , 31.4900, 28.8936, 1539.5835, 52.0415, 28.8320, 28.8936, 12.1, 6.3917, 1B
2009/03/12, 01:28:01, 5.095400, -92.926900, , , 240.0, 12.70, 235.2, 27.192, 1006.73, 0.5, 77.309, 235.0, , , , 31.4848, 28.8885, 1539.5629, 52.0270, 28.8283, 28.8885, 11.6, 6.2058, 1B
2009/03/12, 01:29:01, 5.093700, -92.930017, , , 238.0, 12.60, 235.1, 27.192, 1006.73, 0.5, 77.616, 234.8, , , , 31.5046, 28.8823, 1539.5749, 52.0523, 28.8478, 28.8823, 8.5, 6.4670, 1B
2009/03/12, 01:30:01, 5.092000, -92.933167, , , 241.0, 12.70, 234.7, 27.200, 1006.62, 0.5, 77.554, 235.3, , , , 31.4427, 28.8685, 1539.4814, 51.9483, 28.7742, 28.8685, 7.1, 6.4857, 1B
2009/03/12, 01:31:01, 5.090267, -92.936300, , , 239.0, 13.00, 236.0, 27.208, 1006.57, 0.5, 77.807, 234.6, , , , 31.4535, 28.8562, 1539.4656, 51.9521, 28.7692, 28.8562, 11.8, 5.6671, 1B
2009/03/12, 01:32:01, 5.088550, -92.939433, , , 240.0, 12.90, 233.8, 27.185, 1006.64, 0.5, 77.210, 234.4, , , , 31.4580, 28.8465, 1539.4455, 51.9476, 28.7788, 28.8465, 3.8, 5.8534, 1B
2009/03/12, 01:33:02, 5.086800, -92.942550, , , 241.0, 12.60, 234.8, 27.215, 1006.75, 0.5, 77.823, 234.7, , , , 31.4967, 28.8387, 1539.4690, 51.9971, 28.7734, 28.8387, 1.1, 5.5611, 1B
2009/03/12, 01:34:01, 5.085033, -92.945650, , , 241.0, 12.90, 235.1, 27.200, 1006.73, 0.5, 77.447, 234.7, , , , 31.4964, 28.8304, 1539.4533, 51.9898, 28.7526, 28.8304, 2.9, 5.4915, 1B
2009/03/12, 01:35:02, 5.083333, -92.948783, , , 237.0, 12.70, 234.9, 27.185, 1006.72, 0.5, 77.171, 234.2, , , , 31.4954, 28.8217, 1539.4307, 51.9787, 28.7571, 28.8217, 4.5, 6.0619, 1B
2009/03/12, 01:36:02, 5.081617, -92.951867, , , 241.0, 12.60, 234.6, 27.185, 1006.74, 0.5, 76.313, 234.7, , , , 31.5046, 28.8169, 1539.4298, 51.9875, 28.7542, 28.8169, 7.9, 5.6461, 1B
2009/03/12, 01:37:01, 5.079867, -92.954967, , , 239.0, 12.90, 235.2, 27.177, 1006.50, 0.5, 76.581, 234.9, , , , 31.4996, 28.8130, 1539.4179, 51.9772, 28.7545, 28.8130, 7.3, 5.7543, 1B
2009/03/12, 01:38:01, 5.078133, -92.958083, , , 245.0, 13.10, 234.8, 27.223, 1006.73, 0.5, 77.171, 234.9, , , , 31.4973, 28.8105, 1539.4091, 51.9709, 28.7651, 28.8105, 5.9, 6.1188, 1B
2009/03/12, 01:39:01, 5.076417, -92.961167, , , 241.0, 12.30, 235.0, 27.200, 1006.82, 0.5, 77.700, 235.3, , , , 31.4915, 28.8108, 1539.4013, 51.9617, 28.7731, 28.8108, 5.8, 6.0052, 1B
2009/03/12, 01:40:01, 5.074717, -92.964267, , , 242.0, 12.70, 234.2, 27.208, 1006.80, 0.5, 77.654, 235.6, , , , 31.4853, 28.8076, 1539.3927, 51.9516, 28.7496, 28.8076, 10.9, 5.9861, 1B
2009/03/12, 01:41:02, 5.073000, -92.967383, , , 242.0, 12.60, 234.1, 27.215, 1006.90, 0.5, 77.692, 234.5, , , , 31.4878, 28.8015, 1539.3787, 51.9479, 28.7293, 28.8015, 2.2, 5.6635, 1B
2009/03/12, 01:42:02, 5.071300, -92.970483, , , 239.0, 12.40, 235.3, 27.185, 1006.71, 0.5, 76.627, 235.4, , , , 31.4869, 28.7951, 1539.3638, 51.9404, 28.7270, 28.7951, 358.7, 5.8761, 1B
2009/03/12, 01:43:01, 5.069583, -92.973583, , , 242.0, 12.70, 235.0, 27.200, 1006.92, 0.5, 76.842, 235.6, , , , 31.4816, 28.7877, 1539.3454, 51.9268, 28.7254, 28.7877, 359.3, 5.9406, 1B
2009/03/12, 01:44:02, 5.067883, -92.976683, , , 242.0, 13.00, 234.6, 27.223, 1006.72, 0.5, 77.164, 234.5, , , , 31.4257, 28.7809, 1539.2688, 51.8366, 28.7017, 28.7809, 359.6, 5.2570, 1B
2009/03/12, 01:45:02, 5.066183, -92.979800, , , 241.0, 12.60, 236.4, 27.192, 1006.87, 0.5, 76.420, 235.9, , , , 31.3871, 28.7687, 1539.2018, 51.7680, 28.6646, 28.7687, 357.5, 5.6576, 1B
2009/03/12, 01:46:01, 5.064467, -92.982917, , , 243.0, 12.80, 234.2, 27.192, 1006.99, 0.5, 76.420, 233.8, , , , 31.3720, 28.7539, 1539.1585, 51.7336, 28.6524, 28.7539, 356.8, 5.5611, 1B
2009/03/12, 01:47:02, 5.062717, -92.986017, , , 242.0, 12.60, 235.5, 27.208, 1006.97, 0.5, 76.543, 234.9, , , , 31.3705, 28.7408, 1539.1235, 51.7166, 28.6555, 28.7408, 5.1, 5.0964, 1B
2009/03/12, 01:48:02, 5.061033, -92.989133, , , 243.0, 12.80, 234.8, 27.208, 1007.11, 0.5, 76.872, 236.1, , , , 31.3732, 28.7291, 1539.1008, 51.7093, 28.6488, 28.7291, 10.2, 4.8403, 1B
2009/03/12, 01:49:01, 5.059333, -92.992250, , , 243.0, 12.80, 234.6, 27.215, 1007.01, 0.5, 77.340, 234.4, , , , 31.3621, 28.7187, 1539.0698, 51.6844, 28.6319, 28.7187, 8.8, 5.1321, 1B
2009/03/12, 01:50:01, 5.057600, -92.995367, , , 242.0, 12.80, 234.9, 27.238, 1006.98, 0.5, 77.715, 233.9, , , , 31.3796, 28.7066, 1539.0634, 51.6991, 28.6184, 28.7066, 9.9, 5.3693, 1B
2009/03/12, 01:51:01, 5.055883, -92.998450, , , 242.0, 12.50, 235.6, 27.238, 1006.98, 0.5, 77.715, 235.1, , , , 31.3841, 28.6939, 1539.0404, 51.6934, 28.6128, 28.6939, 11.6, 5.7500, 1B
2009/03/12, 01:52:02, 5.054200, -93.001533, , , 241.0, 12.60, 234.1, 27.208, 1007.09, 0.5, 77.401, 233.9, , , , 31.3946, 28.6850, 1539.0269, 51.6980, 28.6042, 28.6850, 7.0, 5.3929, 1B
2009/03/12, 01:53:02, 5.052450, -93.004600, , , 239.0, 12.70, 235.5, 27.215, 1006.84, 0.5, 77.577, 235.0, , , , 31.4008, 28.6768, 1539.0155, 51.6992, 28.6091, 28.6768, 10.6, 5.6839, 1B
2009/03/12, 01:54:02, 5.050767, -93.007667, , , 240.0, 12.50, 235.1, 27.223, 1007.03, 0.5, 77.386, 235.0, , , , 31.3928, 28.6722, 1538.9970, 51.6830, 28.6161, 28.6722, 8.3, 5.7521, 1B
2009/03/12, 01:55:01, 5.049050, -93.010733, , , 241.0, 12.30, 235.6, 27.223, 1007.04, 0.5, 77.386, 235.4, , , , 31.3854, 28.6714, 1538.9864, 51.6709, 28.6201, 28.6714, 10.6, 5.6655, 1B
2009/03/12, 01:56:02, 5.047350, -93.013783, , , 241.0, 12.90, 233.6, 27.223, 1006.92, 0.5, 77.646, 233.3, , , , 31.4003, 28.6725, 1539.0055, 51.6943, 28.6415, 28.6725, 13.4, 6.0673, 1B
2009/03/12, 01:57:02, 5.045617, -93.016833, , , 240.0, 12.80, 235.8, 27.238, 1007.10, 0.4, 77.968, 236.2, , , , 31.3869, 28.6736, 1538.9939, 51.6758, 28.6349, 28.6736, 11.3, 6.0310, 1B
2009/03/12, 01:58:02, 5.043917, -93.019917, , , 240.0, 12.60, 235.8, 27.231, 1007.11, 0.5, 77.738, 235.0, , , , 31.3808, 28.6710, 1538.9818, 51.6642, 28.6228, 28.6710, 3.4, 6.0131, 1B
2009/03/12, 01:59:02, 5.042217, -93.023017, , , 240.0, 12.70, 234.6, 27.215, 1007.03, 0.5, 76.773, 233.6, , , , 31.3868, 28.6663, 1538.9778, 51.6685, 28.6037, 28.6663, 358.9, 5.6088, 1B
2009/03/12, 02:00:02, 5.040517, -93.026133, , , 243.0, 12.80, 235.6, 27.231, 1007.08, 0.5, 76.796, 234.7, , , , 31.4199, 28.6597, 1538.9981, 51.7108, 28.5974, 28.6597, 8.2, 4.9298, 1B
2009/03/12, 02:01:02, 5.038833, -93.029267, , , 240.0, 12.70, 234.4, 27.254, 1007.07, 0.5, 77.439, 235.0, , , , 31.3993, 28.6564, 1538.9693, 51.6773, 28.6066, 28.6564, 5.0, 5.4552, 1B
2009/03/12, 02:02:01, 5.037133, -93.032417, , , 244.0, 12.90, 236.4, 27.231, 1007.19, 0.5, 77.240, 235.9, , , , 31.3964, 28.6532, 1538.9603, 51.6704, 28.6059, 28.6532, 7.1, 5.6018, 1B
2009/03/12, 02:03:01, 5.035450, -93.035567, , , 242.0, 12.70, 235.3, 27.231, 1007.11, 0.5, 77.240, 233.8, , , , 31.3861, 28.6529, 1538.9478, 51.6545, 28.6110, 28.6529, 11.9, 5.5082, 1B
2009/03/12, 02:04:02, 5.033750, -93.038717, , , 244.0, 12.80, 234.8, 27.277, 1007.17, 0.5, 77.938, 234.9, , , , 31.3904, 28.6544, 1538.9556, 51.6623, 28.6249, 28.6544, 1.1, 5.8065, 1B
2009/03/12, 02:05:02, 5.032033, -93.041867, , , 245.0, 12.70, 235.5, 27.246, 1007.27, 0.5, 77.156, 235.7, , , , 31.4146, 28.6587, 1538.9903, 51.7020, 28.6255, 28.6587, 359.3, 5.4409, 1B
2009/03/12, 02:06:02, 5.030350, -93.045017, , , 240.0, 13.10, 234.8, 27.262, 1007.15, 0.5, 77.332, 234.6, , , , 31.4359, 28.6609, 1539.0175, 51.7354, 28.6315, 28.6609, 2.4, 6.1695, 1B